Location: Unspecified
(0.0000°N, 0.0000°E)
Time: 15:54:17
(UTC+00:00)

FENGYUN 1C DEB - Pass Details

Date: 23 February 2026
Orbit: 814 x 927 km, 98.2° (Epoch: 15 July)

Event Time Altitude Azimuth Distance (km) Brightness Sun altitude
Rises 20:12:08 0° 197° (SSW) 3,414 ? -29.3°
Reaches altitude 10° 20:15:10 10° 214° (SW) 2,489 ? -30.0°
Maximum altitude 20:18:56 19° 258° (WSW) 1,941 ? -30.9°
Drops below altitude 10° 20:22:46 10° 301° (WNW) 2,513 ? -31.9°
Sets 20:25:52 0° 319° (NW) 3,459 ? -32.6°
